Time,TemperatureF,DewpointF,PressureIn,WindDirection,WindDirectionDegrees,WindSpeedMPH,WindSpeedGustMPH,Humidity,HourlyPrecipIn,Conditions,Clouds,dailyrainin,SoftwareType,DateUTC
2013-02-24 00:00:00,22.4,17.1,29.94,South,190,5.0,5.0,80,0.00,CLR,,0.00,WeatherDisplay:10.37,2013-02-24 06:00:00,
2013-02-24 00:10:00,22.6,17.4,29.94,SSW,193,5.0,6.0,80,0.00,CLR,,0.00,WeatherDisplay:10.37,2013-02-24 06:10:00,
2013-02-24 00:15:00,22.7,17.7,29.94,SSW,196,6.0,6.0,81,0.00,CLR,,0.00,WeatherDisplay:10.37,2013-02-24 06:15:00,
2013-02-24 00:20:00,22.9,17.7,29.94,SSW,197,6.0,7.0,80,0.00,CLR,,0.00,WeatherDisplay:10.37,2013-02-24 06:20:00,
2013-02-24 00:25:00,23.1,17.8,29.94,SSW,197,5.0,7.0,80,0.00,CLR,,0.00,WeatherDisplay:10.37,2013-02-24 06:25:00,
2013-02-24 00:30:00,23.3,18.1,29.94,SSW,197,6.0,7.0,80,0.00,CLR,,0.00,WeatherDisplay:10.37,2013-02-24 06:30:00,
2013-02-24 00:40:00,23.2,17.7,29.95,South,191,3.0,7.0,79,0.00,CLR,,0.00,WeatherDisplay:10.37,2013-02-24 06:40:00,
2013-02-24 00:45:00,22.5,17.0,29.95,South,188,3.0,5.0,79,0.00,CLR,,0.00,WeatherDisplay:10.37,2013-02-24 06:45:00,
2013-02-24 00:50:00,22.3,17.1,29.95,South,188,3.0,5.0,80,0.00,CLR,,0.00,WeatherDisplay:10.37,2013-02-24 06:50:00,
2013-02-24 00:55:00,22.9,18.2,29.95,South,191,6.0,7.0,82,0.00,CLR,,0.00,WeatherDisplay:10.37,2013-02-24 06:55:00,
2013-02-24 01:00:00,23.3,18.3,29.95,SSW,192,6.0,7.0,81,0.00,CLR,,0.00,WeatherDisplay:10.37,2013-02-24 07:00:00,
2013-02-24 01:10:00,22.9,17.7,29.95,South,190,3.0,5.0,80,0.00,CLR,,0.00,WeatherDisplay:10.37,2013-02-24 07:10:00,
2013-02-24 01:15:00,22.5,17.2,29.95,South,191,3.0,4.0,80,0.00,CLR,,0.00,WeatherDisplay:10.37,2013-02-24 07:15:00,
2013-02-24 01:20:00,21.8,16.6,29.95,South,191,3.0,4.0,80,0.00,CLR,,0.00,WeatherDisplay:10.37,2013-02-24 07:20:00,
2013-02-24 01:25:00,22.0,17.3,29.95,SSW,192,5.0,6.0,82,0.00,CLR,,0.00,WeatherDisplay:10.37,2013-02-24 07:25:00,
2013-02-24 01:30:00,22.8,18.4,29.95,SSW,196,6.0,7.0,83,0.00,CLR,,0.00,WeatherDisplay:10.37,2013-02-24 07:30:00,
2013-02-24 01:40:00,23.1,18.1,29.96,SSW,192,6.0,8.0,81,0.00,CLR,,0.00,WeatherDisplay:10.37,2013-02-24 07:40:00,
2013-02-24 01:45:00,23.0,18.0,29.96,SSW,193,5.0,7.0,81,0.00,CLR,,0.00,WeatherDisplay:10.37,2013-02-24 07:45:00,
2013-02-24 01:50:00,22.9,17.9,29.96,SSW,194,6.0,7.0,81,0.00,CLR,,0.00,WeatherDisplay:10.37,2013-02-24 07:50:00,
2013-02-24 01:55:00,22.7,17.8,29.96,SSW,193,6.0,7.0,81,0.00,CLR,,0.00,WeatherDisplay:10.37,2013-02-24 07:55:00,
2013-02-24 02:00:00,22.6,17.9,29.96,SSW,195,5.0,7.0,82,0.00,CLR,,0.00,WeatherDisplay:10.37,2013-02-24 08:00:00,
2013-02-24 02:10:00,22.4,17.7,29.96,SSW,196,6.0,7.0,82,0.00,,,0.00,WeatherDisplay:10.37,2013-02-24 08:10:00,
2013-02-24 02:15:00,22.0,17.3,29.96,SSW,195,3.0,7.0,82,0.00,,,0.00,WeatherDisplay:10.37,2013-02-24 08:15:00,
2013-02-24 02:20:00,21.0,16.1,29.96,SSW,196,3.0,4.0,81,0.00,,,0.00,WeatherDisplay:10.37,2013-02-24 08:20:00,
2013-02-24 02:25:00,20.9,16.5,29.95,SSW,196,3.0,4.0,83,0.00,,,0.00,WeatherDisplay:10.37,2013-02-24 08:25:00,
2013-02-24 02:30:00,21.3,17.2,29.95,SSW,196,3.0,5.0,84,0.00,,,0.00,WeatherDisplay:10.37,2013-02-24 08:30:00,
2013-02-24 02:40:00,21.9,17.8,29.95,South,190,3.0,5.0,84,0.00,,,0.00,WeatherDisplay:10.37,2013-02-24 08:40:00,
2013-02-24 02:45:00,22.0,17.6,29.95,South,190,3.0,5.0,83,0.00,,,0.00,WeatherDisplay:10.37,2013-02-24 08:45:00,
2013-02-24 02:50:00,22.0,17.6,29.94,South,188,3.0,5.0,83,0.00,,,0.00,WeatherDisplay:10.37,2013-02-24 08:50:00,
2013-02-24 02:55:00,22.2,17.8,29.94,South,188,3.0,5.0,83,0.00,,,0.00,WeatherDisplay:10.37,2013-02-24 08:55:00,
2013-02-24 03:00:00,22.0,17.7,29.94,SSW,194,3.0,5.0,83,0.00,,,0.00,WeatherDisplay:10.37,2013-02-24 09:00:00,
2013-02-24 03:10:00,22.0,17.7,29.94,SSW,195,5.0,5.0,83,0.00,FEW,,0.00,WeatherDisplay:10.37,2013-02-24 09:10:00,
2013-02-24 03:15:00,22.5,18.4,29.94,South,185,5.0,6.0,84,0.00,FEW,,0.00,WeatherDisplay:10.37,2013-02-24 09:15:00,
2013-02-24 03:20:00,23.2,18.8,29.94,South,189,5.0,7.0,83,0.00,FEW,,0.00,WeatherDisplay:10.37,2013-02-24 09:20:00,
2013-02-24 03:25:00,23.7,19.3,29.94,SSW,194,6.0,8.0,83,0.00,FEW,,0.00,WeatherDisplay:10.37,2013-02-24 09:25:00,
2013-02-24 03:30:00,23.9,19.2,29.94,SSW,194,5.0,7.0,82,0.00,FEW,,0.00,WeatherDisplay:10.37,2013-02-24 09:30:00,
2013-02-24 03:40:00,23.5,18.9,29.94,SSW,192,3.0,5.0,82,0.00,FEW,,0.00,WeatherDisplay:10.37,2013-02-24 09:40:00,
2013-02-24 03:45:00,23.2,18.5,29.93,SSW,192,3.0,4.0,82,0.00,FEW,,0.00,WeatherDisplay:10.37,2013-02-24 09:45:00,
2013-02-24 03:50:00,22.8,18.2,29.94,South,182,2.0,4.0,82,0.00,FEW,,0.00,WeatherDisplay:10.37,2013-02-24 09:50:00,
2013-02-24 03:55:00,22.5,17.8,29.94,South,169,2.0,5.0,82,0.00,FEW,,0.00,WeatherDisplay:10.37,2013-02-24 09:55:00,
2013-02-24 04:00:00,22.4,18.0,29.94,South,170,3.0,4.0,83,0.00,FEW,,0.00,WeatherDisplay:10.37,2013-02-24 10:00:00,
2013-02-24 04:10:00,21.9,17.6,29.93,South,175,2.0,4.0,83,0.00,CLR,,0.00,WeatherDisplay:10.37,2013-02-24 10:10:00,
2013-02-24 04:15:00,21.7,17.3,29.94,South,175,3.0,4.0,83,0.00,CLR,,0.00,WeatherDisplay:10.37,2013-02-24 10:15:00,
2013-02-24 04:20:00,21.8,17.7,29.93,South,169,3.0,5.0,84,0.00,CLR,,0.00,WeatherDisplay:10.37,2013-02-24 10:20:00,
2013-02-24 04:30:00,21.4,17.3,29.94,SSE,167,2.0,4.0,84,0.00,CLR,,0.00,WeatherDisplay:10.37,2013-02-24 10:30:00,
2013-02-24 04:40:00,21.3,17.5,29.94,SSE,168,2.0,3.0,85,0.00,CLR,,0.00,WeatherDisplay:10.37,2013-02-24 10:40:00,
2013-02-24 04:45:00,21.3,17.5,29.94,SSE,168,1.0,3.0,85,0.00,CLR,,0.00,WeatherDisplay:10.37,2013-02-24 10:45:00,
2013-02-24 04:50:00,21.3,17.5,29.94,SSE,168,2.0,2.0,85,0.00,CLR,,0.00,WeatherDisplay:10.37,2013-02-24 10:50:00,
2013-02-24 04:55:00,21.4,17.9,29.94,SSE,168,1.0,2.0,86,0.00,CLR,,0.00,WeatherDisplay:10.37,2013-02-24 10:55:00,
2013-02-24 05:00:00,21.7,18.1,29.94,SSE,168,2.0,4.0,86,0.00,CLR,,0.00,WeatherDisplay:10.37,2013-02-24 11:00:00,
2013-02-24 05:10:00,22.7,19.1,29.94,SSE,168,3.0,5.0,86,0.00,CLR,,0.00,WeatherDisplay:10.37,2013-02-24 11:10:00,
2013-02-24 05:15:00,23.0,19.2,29.95,SSE,168,3.0,4.0,85,0.00,CLR,,0.00,WeatherDisplay:10.37,2013-02-24 11:15:00,
2013-02-24 05:20:00,23.1,19.3,29.95,South,169,3.0,5.0,85,0.00,CLR,,0.00,WeatherDisplay:10.37,2013-02-24 11:20:00,
2013-02-24 05:25:00,23.0,18.9,29.95,SSE,168,2.0,4.0,84,0.00,CLR,,0.00,WeatherDisplay:10.37,2013-02-24 11:25:00,
2013-02-24 05:30:00,22.5,18.4,29.95,SSE,167,3.0,4.0,84,0.00,CLR,,0.00,WeatherDisplay:10.37,2013-02-24 11:30:00,
2013-02-24 05:40:00,22.4,18.6,29.95,South,169,3.0,5.0,85,0.00,CLR,,0.00,WeatherDisplay:10.37,2013-02-24 11:40:00,
2013-02-24 05:45:00,22.3,18.5,29.95,SSE,168,2.0,5.0,85,0.00,CLR,,0.00,WeatherDisplay:10.37,2013-02-24 11:45:00,
2013-02-24 05:50:00,21.7,17.6,29.95,South,169,2.0,3.0,84,0.00,CLR,,0.00,WeatherDisplay:10.37,2013-02-24 11:50:00,
2013-02-24 05:55:00,21.2,17.1,29.95,South,169,2.0,3.0,84,0.00,CLR,,0.00,WeatherDisplay:10.37,2013-02-24 11:55:00,
2013-02-24 06:00:00,21.2,17.4,29.95,South,169,2.0,3.0,85,0.00,CLR,,0.00,WeatherDisplay:10.37,2013-02-24 12:00:00,
2013-02-24 06:10:00,21.2,17.4,29.95,South,169,2.0,3.0,85,0.00,CLR,,0.00,WeatherDisplay:10.37,2013-02-24 12:10:00,
2013-02-24 06:15:00,20.8,17.0,29.95,SSE,166,2.0,3.0,85,0.00,CLR,,0.00,WeatherDisplay:10.37,2013-02-24 12:15:00,
2013-02-24 06:20:00,20.7,16.9,29.95,SSE,163,2.0,3.0,85,0.00,CLR,,0.00,WeatherDisplay:10.37,2013-02-24 12:20:00,
2013-02-24 06:30:00,20.3,16.5,29.94,SSE,147,1.0,2.0,85,0.00,CLR,,0.00,WeatherDisplay:10.37,2013-02-24 12:30:00,
2013-02-24 06:35:00,20.2,16.7,29.94,SE,145,1.0,2.0,86,0.00,CLR,,0.00,WeatherDisplay:10.37,2013-02-24 12:35:00,
2013-02-24 06:45:00,19.9,16.1,29.94,SE,145,2.0,3.0,85,0.00,CLR,,0.00,WeatherDisplay:10.37,2013-02-24 12:45:00,
2013-02-24 06:50:00,20.3,17.0,29.94,SSE,149,3.0,4.0,87,0.00,CLR,,0.00,WeatherDisplay:10.37,2013-02-24 12:50:00,
2013-02-24 06:55:00,20.4,16.9,29.95,SSE,155,2.0,4.0,86,0.00,CLR,,0.00,WeatherDisplay:10.37,2013-02-24 12:55:00,
2013-02-24 07:00:00,20.3,16.8,29.95,SSE,157,2.0,3.0,86,0.00,CLR,,0.00,WeatherDisplay:10.37,2013-02-24 13:00:00,
2013-02-24 07:10:00,20.6,17.1,29.95,SSE,157,2.0,3.0,86,0.00,CLR,,0.00,WeatherDisplay:10.37,2013-02-24 13:10:00,
2013-02-24 07:15:00,20.6,17.1,29.95,SSE,157,3.0,4.0,86,0.00,CLR,,0.00,WeatherDisplay:10.37,2013-02-24 13:15:00,
2013-02-24 07:20:00,20.7,16.9,29.95,SSE,157,2.0,3.0,85,0.00,CLR,,0.00,WeatherDisplay:10.37,2013-02-24 13:20:00,
2013-02-24 07:25:00,20.9,17.4,29.95,SSE,159,3.0,4.0,86,0.00,CLR,,0.00,WeatherDisplay:10.37,2013-02-24 13:25:00,
2013-02-24 07:30:00,21.0,17.2,29.95,SSE,161,2.0,3.0,85,0.00,CLR,,0.00,WeatherDisplay:10.37,2013-02-24 13:30:00,
2013-02-24 07:40:00,21.5,17.4,29.96,SSE,161,2.0,3.0,84,0.00,CLR,,0.00,WeatherDisplay:10.37,2013-02-24 13:40:00,
2013-02-24 07:50:00,22.1,18.0,29.96,SSE,161,3.0,4.0,84,0.00,CLR,,0.00,WeatherDisplay:10.37,2013-02-24 13:50:00,
2013-02-24 07:55:00,22.4,18.0,29.96,SSE,161,3.0,4.0,83,0.00,CLR,,0.00,WeatherDisplay:10.37,2013-02-24 13:55:00,
2013-02-24 08:00:00,22.5,18.1,29.96,SSE,161,3.0,4.0,83,0.00,CLR,,0.00,WeatherDisplay:10.37,2013-02-24 14:00:00,
2013-02-24 08:10:00,22.9,18.2,29.97,SSE,161,3.0,4.0,82,0.00,CLR,,0.00,WeatherDisplay:10.37,2013-02-24 14:10:00,
2013-02-24 08:15:00,23.1,18.4,29.97,SSE,161,3.0,4.0,82,0.00,CLR,,0.00,WeatherDisplay:10.37,2013-02-24 14:15:00,
2013-02-24 08:20:00,23.4,18.8,29.97,SSE,161,3.0,4.0,82,0.00,CLR,,0.00,WeatherDisplay:10.37,2013-02-24 14:20:00,
2013-02-24 08:30:00,24.0,18.7,29.97,SSE,161,3.0,4.0,80,0.00,CLR,,0.00,WeatherDisplay:10.37,2013-02-24 14:30:00,
2013-02-24 08:40:00,24.6,19.3,29.98,SSE,161,2.0,4.0,80,0.00,CLR,,0.00,WeatherDisplay:10.37,2013-02-24 14:40:00,
2013-02-24 08:45:00,24.9,19.3,29.98,SSE,161,3.0,4.0,79,0.00,CLR,,0.00,WeatherDisplay:10.37,2013-02-24 14:45:00,
2013-02-24 08:50:00,25.3,19.7,29.98,SSE,163,3.0,4.0,79,0.00,CLR,,0.00,WeatherDisplay:10.37,2013-02-24 14:50:00,
2013-02-24 09:00:00,26.1,20.2,29.98,SSE,167,3.0,5.0,78,0.00,CLR,,0.00,WeatherDisplay:10.37,2013-02-24 15:00:00,
2013-02-24 09:10:00,26.9,20.3,29.98,SSE,158,5.0,6.0,76,0.00,CLR,,0.00,WeatherDisplay:10.37,2013-02-24 15:10:00,
2013-02-24 09:15:00,27.3,20.7,29.98,SSE,160,5.0,7.0,76,0.00,CLR,,0.00,WeatherDisplay:10.37,2013-02-24 15:15:00,
2013-02-24 09:20:00,27.8,20.9,29.98,SSE,158,5.0,7.0,75,0.00,CLR,,0.00,WeatherDisplay:10.37,2013-02-24 15:20:00,
2013-02-24 09:25:00,28.4,21.1,29.98,SSE,160,5.0,6.0,74,0.00,CLR,,0.00,WeatherDisplay:10.37,2013-02-24 15:25:00,
2013-02-24 09:30:00,29.1,21.5,29.98,SSE,157,5.0,6.0,73,0.00,CLR,,0.00,WeatherDisplay:10.37,2013-02-24 15:30:00,
2013-02-24 09:40:00,30.4,22.1,29.98,SSE,153,5.0,6.0,71,0.00,CLR,,0.00,WeatherDisplay:10.37,2013-02-24 15:40:00,
2013-02-24 09:45:00,31.0,22.0,29.98,SSE,148,6.0,7.0,69,0.00,CLR,,0.00,WeatherDisplay:10.37,2013-02-24 15:45:00,
2013-02-24 09:50:00,31.5,22.1,29.97,SE,144,5.0,10.0,68,0.00,CLR,,0.00,WeatherDisplay:10.37,2013-02-24 15:50:00,
2013-02-24 09:55:00,32.1,22.4,29.97,SE,139,5.0,7.0,67,0.00,CLR,,0.00,WeatherDisplay:10.37,2013-02-24 15:55:00,
2013-02-24 10:00:00,32.6,22.5,29.97,SE,138,5.0,9.0,66,0.00,CLR,,0.00,WeatherDisplay:10.37,2013-02-24 16:00:00,
2013-02-24 10:10:00,33.7,23.2,29.97,SE,131,3.0,5.0,65,0.00,CLR,,0.00,WeatherDisplay:10.37,2013-02-24 16:10:00,
2013-02-24 10:15:00,34.1,22.8,29.97,SE,130,6.0,10.0,63,0.00,CLR,,0.00,WeatherDisplay:10.37,2013-02-24 16:15:00,
2013-02-24 10:20:00,34.3,22.2,29.97,SE,132,6.0,10.0,61,0.00,CLR,,0.00,WeatherDisplay:10.37,2013-02-24 16:20:00,
2013-02-24 10:25:00,34.5,22.4,29.97,SE,133,6.0,10.0,61,0.00,CLR,,0.00,WeatherDisplay:10.37,2013-02-24 16:25:00,
2013-02-24 10:30:00,34.8,22.4,29.97,SE,140,6.0,10.0,60,0.00,CLR,,0.00,WeatherDisplay:10.37,2013-02-24 16:30:00,
2013-02-24 10:40:00,35.7,22.3,29.97,SE,139,5.0,10.0,58,0.00,CLR,,0.00,WeatherDisplay:10.37,2013-02-24 16:40:00,
2013-02-24 10:45:00,35.9,23.3,29.98,ESE,123,6.0,9.0,60,0.00,CLR,,0.00,WeatherDisplay:10.37,2013-02-24 16:45:00,
2013-02-24 10:50:00,35.9,22.5,29.98,SE,131,6.0,9.0,58,0.00,CLR,,0.00,WeatherDisplay:10.37,2013-02-24 16:50:00,
2013-02-24 10:55:00,36.1,22.7,29.98,SE,134,6.0,10.0,58,0.00,CLR,,0.00,WeatherDisplay:10.37,2013-02-24 16:55:00,
2013-02-24 11:00:00,36.2,22.8,29.98,SE,139,6.0,9.0,58,0.00,CLR,,0.00,WeatherDisplay:10.37,2013-02-24 17:00:00,
2013-02-24 11:10:00,36.6,23.6,29.98,SE,128,3.0,7.0,59,0.00,CLR,,0.00,WeatherDisplay:10.37,2013-02-24 17:10:00,
2013-02-24 11:15:00,36.8,23.4,29.98,ESE,118,3.0,7.0,58,0.00,CLR,,0.00,WeatherDisplay:10.37,2013-02-24 17:15:00,
2013-02-24 11:20:00,36.9,23.5,29.98,ESE,112,3.0,7.0,58,0.00,CLR,,0.00,WeatherDisplay:10.37,2013-02-24 17:20:00,
2013-02-24 11:30:00,37.4,23.2,29.98,ESE,116,3.0,5.0,56,0.00,CLR,,0.00,WeatherDisplay:10.37,2013-02-24 17:30:00,
2013-02-24 11:40:00,38.1,23.8,29.98,ESE,123,2.0,5.0,56,0.00,CLR,,0.00,WeatherDisplay:10.37,2013-02-24 17:40:00,
2013-02-24 11:45:00,38.3,23.5,29.98,ESE,120,3.0,5.0,55,0.00,CLR,,0.00,WeatherDisplay:10.37,2013-02-24 17:45:00,
2013-02-24 11:50:00,38.7,24.3,29.97,ESE,116,3.0,6.0,56,0.00,CLR,,0.00,WeatherDisplay:10.37,2013-02-24 17:50:00,
2013-02-24 11:55:00,38.9,24.1,29.97,ESE,114,3.0,7.0,55,0.00,CLR,,0.00,WeatherDisplay:10.37,2013-02-24 17:55:00,
2013-02-24 12:00:00,39.2,23.9,29.97,ESE,123,5.0,9.0,54,0.00,CLR,,0.00,WeatherDisplay:10.37,2013-02-24 18:00:00,
2013-02-24 12:10:00,39.8,23.6,29.97,ESE,120,6.0,9.0,52,0.00,CLR,,0.00,WeatherDisplay:10.37,2013-02-24 18:10:00,
2013-02-24 12:15:00,40.1,24.8,29.97,ESE,118,2.0,9.0,54,0.00,CLR,,0.00,WeatherDisplay:10.37,2013-02-24 18:15:00,
2013-02-24 12:20:00,40.3,24.1,29.97,ESE,111,5.0,8.0,52,0.00,CLR,,0.00,WeatherDisplay:10.37,2013-02-24 18:20:00,
2013-02-24 12:25:00,40.4,24.1,29.96,ESE,108,5.0,10.0,52,0.00,CLR,,0.00,WeatherDisplay:10.37,2013-02-24 18:25:00,
2013-02-24 12:30:00,40.6,23.8,29.96,East,100,6.0,7.0,51,0.00,CLR,,0.00,WeatherDisplay:10.37,2013-02-24 18:30:00,
2013-02-24 12:40:00,41.0,24.2,29.95,East,101,6.0,9.0,51,0.00,CLR,,0.00,WeatherDisplay:10.37,2013-02-24 18:40:00,
2013-02-24 12:45:00,40.6,23.9,29.94,ENE,78,7.0,8.0,51,0.00,CLR,,0.00,WeatherDisplay:10.37,2013-02-24 18:45:00,
2013-02-24 12:50:00,40.5,24.2,29.94,ENE,74,5.0,9.0,52,0.00,CLR,,0.00,WeatherDisplay:10.37,2013-02-24 18:50:00,
2013-02-24 12:55:00,40.8,24.1,29.94,ENE,77,5.0,8.0,51,0.00,CLR,,0.00,WeatherDisplay:10.37,2013-02-24 18:55:00,
2013-02-24 13:00:00,41.1,23.9,29.94,East,81,6.0,8.0,50,0.00,CLR,,0.00,WeatherDisplay:10.37,2013-02-24 19:00:00,
2013-02-24 13:05:00,41.3,23.6,29.93,East,86,7.0,8.0,49,0.00,CLR,,0.00,WeatherDisplay:10.37,2013-02-24 19:05:00,
2013-02-24 13:10:00,41.5,23.7,29.93,East,89,6.0,9.0,49,0.00,CLR,,0.00,WeatherDisplay:10.37,2013-02-24 19:10:00,
2013-02-24 13:15:00,41.7,23.9,29.92,East,90,6.0,9.0,49,0.00,CLR,,0.00,WeatherDisplay:10.37,2013-02-24 19:15:00,
2013-02-24 13:20:00,41.8,23.5,29.92,East,89,7.0,10.0,48,0.00,CLR,,0.00,WeatherDisplay:10.37,2013-02-24 19:20:00,
2013-02-24 13:30:00,41.9,24.1,29.91,East,96,6.0,8.0,49,0.00,CLR,,0.00,WeatherDisplay:10.37,2013-02-24 19:30:00,
2013-02-24 13:40:00,42.1,25.2,29.91,ESE,105,5.0,8.0,51,0.00,CLR,,0.00,WeatherDisplay:10.37,2013-02-24 19:40:00,
2013-02-24 13:45:00,42.3,24.5,29.90,East,98,6.0,8.0,49,0.00,CLR,,0.00,WeatherDisplay:10.37,2013-02-24 19:45:00,
2013-02-24 13:50:00,42.2,23.9,29.90,East,89,7.0,12.0,48,0.00,CLR,,0.00,WeatherDisplay:10.37,2013-02-24 19:50:00,
2013-02-24 13:55:00,42.2,24.4,29.89,East,84,7.0,12.0,49,0.00,CLR,,0.00,WeatherDisplay:10.37,2013-02-24 19:55:00,
2013-02-24 14:00:00,41.9,25.1,29.89,East,79,7.0,10.0,51,0.00,CLR,,0.00,WeatherDisplay:10.37,2013-02-24 20:00:00,
2013-02-24 14:10:00,41.9,24.6,29.89,East,80,6.0,9.0,50,0.00,CLR,,0.00,WeatherDisplay:10.37,2013-02-24 20:10:00,
2013-02-24 14:15:00,41.9,24.6,29.89,East,83,8.0,13.0,50,0.00,CLR,,0.00,WeatherDisplay:10.37,2013-02-24 20:15:00,
2013-02-24 14:20:00,41.8,24.5,29.89,East,80,8.0,12.0,50,0.00,CLR,,0.00,WeatherDisplay:10.37,2013-02-24 20:20:00,
2013-02-24 14:30:00,41.2,24.4,29.88,ENE,71,10.0,14.0,51,0.00,CLR,,0.00,WeatherDisplay:10.37,2013-02-24 20:30:00,
2013-02-24 14:40:00,41.3,24.5,29.88,ENE,75,9.0,13.0,51,0.00,CLR,,0.00,WeatherDisplay:10.37,2013-02-24 20:40:00,
2013-02-24 14:45:00,41.4,24.6,29.87,ENE,74,10.0,12.0,51,0.00,CLR,,0.00,WeatherDisplay:10.37,2013-02-24 20:45:00,
2013-02-24 14:50:00,41.2,24.9,29.87,ENE,73,7.0,12.0,52,0.00,CLR,,0.00,WeatherDisplay:10.37,2013-02-24 20:50:00,
2013-02-24 14:55:00,41.3,25.0,29.87,ENE,71,8.0,12.0,52,0.00,CLR,,0.00,WeatherDisplay:10.37,2013-02-24 20:55:00,
2013-02-24 15:00:00,41.4,25.0,29.88,ENE,70,7.0,12.0,52,0.00,CLR,,0.00,WeatherDisplay:10.37,2013-02-24 21:00:00,
2013-02-24 15:10:00,41.8,24.5,29.87,East,79,9.0,13.0,50,0.00,CLR,,0.00,WeatherDisplay:10.37,2013-02-24 21:10:00,
2013-02-24 15:15:00,42.0,24.2,29.87,ENE,77,12.0,15.0,49,0.00,CLR,,0.00,WeatherDisplay:10.37,2013-02-24 21:15:00,
2013-02-24 15:20:00,42.1,24.7,29.86,ENE,77,10.0,13.0,50,0.00,CLR,,0.00,WeatherDisplay:10.37,2013-02-24 21:20:00,
2013-02-24 15:25:00,41.9,24.6,29.87,ENE,74,9.0,14.0,50,0.00,CLR,,0.00,WeatherDisplay:10.37,2013-02-24 21:25:00,
2013-02-24 15:30:00,42.2,24.9,29.87,East,81,9.0,14.0,50,0.00,CLR,,0.00,WeatherDisplay:10.37,2013-02-24 21:30:00,
2013-02-24 15:40:00,41.6,24.8,29.86,ENE,71,9.0,12.0,51,0.00,CLR,,0.00,WeatherDisplay:10.37,2013-02-24 21:40:00,
2013-02-24 15:45:00,41.4,25.1,29.86,ENE,67,12.0,14.0,52,0.00,CLR,,0.00,WeatherDisplay:10.37,2013-02-24 21:45:00,
2013-02-24 15:50:00,41.2,24.9,29.86,ENE,68,9.0,15.0,52,0.00,CLR,,0.00,WeatherDisplay:10.37,2013-02-24 21:50:00,
2013-02-24 16:00:00,41.2,24.9,29.86,ENE,74,10.0,14.0,52,0.00,CLR,,0.00,WeatherDisplay:10.37,2013-02-24 22:00:00,
2013-02-24 16:10:00,40.8,25.0,29.86,ENE,68,10.0,14.0,53,0.00,CLR,,0.00,WeatherDisplay:10.37,2013-02-24 22:10:00,
2013-02-24 16:15:00,40.6,24.8,29.86,ENE,69,10.0,14.0,53,0.00,CLR,,0.00,WeatherDisplay:10.37,2013-02-24 22:15:00,
2013-02-24 16:20:00,40.5,25.1,29.86,ENE,71,10.0,15.0,54,0.00,CLR,,0.00,WeatherDisplay:10.37,2013-02-24 22:20:00,
2013-02-24 16:30:00,40.3,25.0,29.86,ENE,66,10.0,14.0,54,0.00,CLR,,0.00,WeatherDisplay:10.37,2013-02-24 22:30:00,
2013-02-24 16:40:00,40.2,24.9,29.86,ENE,67,10.0,14.0,54,0.00,CLR,,0.00,WeatherDisplay:10.37,2013-02-24 22:40:00,
2013-02-24 16:45:00,40.0,25.1,29.85,ENE,67,10.0,13.0,55,0.00,CLR,,0.00,WeatherDisplay:10.37,2013-02-24 22:45:00,
2013-02-24 16:50:00,39.7,25.3,29.85,ENE,69,10.0,13.0,56,0.00,CLR,,0.00,WeatherDisplay:10.37,2013-02-24 22:50:00,
2013-02-24 16:55:00,39.5,25.1,29.85,ENE,69,10.0,15.0,56,0.00,CLR,,0.00,WeatherDisplay:10.37,2013-02-24 22:55:00,
2013-02-24 17:00:00,39.3,24.9,29.86,ENE,66,8.0,15.0,56,0.00,CLR,,0.00,WeatherDisplay:10.37,2013-02-24 23:00:00,
2013-02-24 17:05:00,39.0,25.0,29.86,ENE,68,7.0,12.0,57,0.00,OVC,,0.00,WeatherDisplay:10.37,2013-02-24 23:05:00,
2013-02-24 17:10:00,38.9,25.4,29.87,ENE,67,7.0,10.0,58,0.00,OVC,,0.00,WeatherDisplay:10.37,2013-02-24 23:10:00,
2013-02-24 17:15:00,38.7,25.2,29.86,ENE,66,7.0,12.0,58,0.00,OVC,,0.00,WeatherDisplay:10.37,2013-02-24 23:15:00,
2013-02-24 17:20:00,38.4,25.3,29.87,ENE,70,6.0,9.0,59,0.00,OVC,,0.00,WeatherDisplay:10.37,2013-02-24 23:20:00,
2013-02-24 17:25:00,38.2,25.5,29.87,ENE,70,6.0,9.0,60,0.00,OVC,,0.00,WeatherDisplay:10.37,2013-02-24 23:25:00,
2013-02-24 17:30:00,38.1,25.4,29.87,ENE,70,7.0,9.0,60,0.00,OVC,,0.00,WeatherDisplay:10.37,2013-02-24 23:30:00,
2013-02-24 17:40:00,37.8,25.1,29.87,ENE,69,6.0,9.0,60,0.00,OVC,,0.00,WeatherDisplay:10.37,2013-02-24 23:40:00,
2013-02-24 17:45:00,37.8,25.5,29.88,ENE,68,7.0,9.0,61,0.00,OVC,,0.00,WeatherDisplay:10.37,2013-02-24 23:45:00,
2013-02-24 17:50:00,37.6,25.4,29.88,ENE,67,7.0,9.0,61,0.00,OVC,,0.00,WeatherDisplay:10.37,2013-02-24 23:50:00,
2013-02-24 17:55:00,37.4,25.6,29.88,ENE,69,6.0,9.0,62,0.00,OVC,,0.00,WeatherDisplay:10.37,2013-02-24 23:55:00,
2013-02-24 18:00:00,37.4,25.6,29.88,ENE,74,8.0,14.0,62,0.00,OVC,,0.00,WeatherDisplay:10.37,2013-02-25 00:00:00,
2013-02-24 18:05:00,37.7,25.1,29.88,ENE,74,9.0,13.0,60,0.00,BKN,,0.00,WeatherDisplay:10.37,2013-02-25 00:05:00,
2013-02-24 18:10:00,37.7,25.4,29.88,ENE,78,7.0,10.0,61,0.00,BKN,,0.00,WeatherDisplay:10.37,2013-02-25 00:10:00,
2013-02-24 18:15:00,37.4,25.5,29.89,ENE,76,5.0,11.0,62,0.00,BKN,,0.00,WeatherDisplay:10.37,2013-02-25 00:15:00,
2013-02-24 18:20:00,37.3,25.5,29.89,ENE,76,6.0,12.0,62,0.00,BKN,,0.00,WeatherDisplay:10.37,2013-02-25 00:20:00,
2013-02-24 18:25:00,37.2,25.0,29.89,ENE,75,8.0,14.0,61,0.00,BKN,,0.00,WeatherDisplay:10.37,2013-02-25 00:25:00,
2013-02-24 18:30:00,37.0,25.2,29.89,ENE,77,7.0,9.0,62,0.00,BKN,,0.00,WeatherDisplay:10.37,2013-02-25 00:30:00,
2013-02-24 18:40:00,36.8,25.0,29.90,East,82,5.0,10.0,62,0.00,BKN,,0.00,WeatherDisplay:10.37,2013-02-25 00:40:00,
2013-02-24 18:45:00,36.7,24.9,29.90,East,83,6.0,9.0,62,0.00,BKN,,0.00,WeatherDisplay:10.37,2013-02-25 00:45:00,
2013-02-24 18:50:00,36.6,24.8,29.90,ENE,78,7.0,10.0,62,0.00,BKN,,0.00,WeatherDisplay:10.37,2013-02-25 00:50:00,
2013-02-24 19:00:00,36.1,25.1,29.91,ENE,69,6.0,9.0,64,0.00,BKN,,0.00,WeatherDisplay:10.37,2013-02-25 01:00:00,
2013-02-24 19:05:00,35.9,25.3,29.91,ENE,70,5.0,8.0,65,0.00,BKN,,0.00,WeatherDisplay:10.37,2013-02-25 01:05:00,
2013-02-24 19:10:00,35.8,25.2,29.91,ENE,71,6.0,8.0,65,0.00,BKN,,0.00,WeatherDisplay:10.37,2013-02-25 01:10:00,
2013-02-24 19:15:00,35.7,25.1,29.91,ENE,69,6.0,10.0,65,0.00,BKN,,0.00,WeatherDisplay:10.37,2013-02-25 01:15:00,
2013-02-24 19:20:00,35.7,24.7,29.91,ENE,69,7.0,11.0,64,0.00,BKN,,0.00,WeatherDisplay:10.37,2013-02-25 01:20:00,
2013-02-24 19:25:00,35.7,24.7,29.91,ENE,70,8.0,12.0,64,0.00,BKN,,0.00,WeatherDisplay:10.37,2013-02-25 01:25:00,
2013-02-24 19:30:00,35.8,24.8,29.91,ENE,72,9.0,13.0,64,0.00,BKN,,0.00,WeatherDisplay:10.37,2013-02-25 01:30:00,
2013-02-24 19:40:00,35.8,24.8,29.91,ENE,67,7.0,12.0,64,0.00,BKN,,0.00,WeatherDisplay:10.37,2013-02-25 01:40:00,
2013-02-24 19:45:00,35.7,24.7,29.91,ENE,65,9.0,12.0,64,0.00,BKN,,0.00,WeatherDisplay:10.37,2013-02-25 01:45:00,
2013-02-24 19:50:00,35.7,25.0,29.91,ENE,60,6.0,10.0,65,0.00,BKN,,0.00,WeatherDisplay:10.37,2013-02-25 01:50:00,
2013-02-24 19:55:00,35.5,24.9,29.91,ENE,59,8.0,10.0,65,0.00,BKN,,0.00,WeatherDisplay:10.37,2013-02-25 01:55:00,
2013-02-24 20:00:00,35.4,24.8,29.91,ENE,64,9.0,12.0,65,0.00,BKN,,0.00,WeatherDisplay:10.37,2013-02-25 02:00:00,
2013-02-24 20:05:00,35.4,24.8,29.91,ENE,65,9.0,13.0,65,0.00,OVC,,0.00,WeatherDisplay:10.37,2013-02-25 02:05:00,
2013-02-24 20:10:00,35.4,24.8,29.91,ENE,63,9.0,12.0,65,0.00,OVC,,0.00,WeatherDisplay:10.37,2013-02-25 02:10:00,
2013-02-24 20:15:00,35.4,24.8,29.91,ENE,66,10.0,13.0,65,0.00,OVC,,0.00,WeatherDisplay:10.37,2013-02-25 02:15:00,
2013-02-24 20:20:00,35.4,24.8,29.91,ENE,68,9.0,13.0,65,0.00,OVC,,0.00,WeatherDisplay:10.37,2013-02-25 02:20:00,
2013-02-24 20:30:00,35.4,24.8,29.91,ENE,64,9.0,12.0,65,0.00,OVC,,0.00,WeatherDisplay:10.37,2013-02-25 02:30:00,
2013-02-24 20:35:00,35.4,24.8,29.92,ENE,61,8.0,12.0,65,0.00,OVC,,0.00,WeatherDisplay:10.37,2013-02-25 02:35:00,
2013-02-24 20:40:00,35.4,24.8,29.92,NE,56,6.0,12.0,65,0.00,OVC,,0.00,WeatherDisplay:10.37,2013-02-25 02:40:00,
2013-02-24 20:45:00,35.4,24.8,29.92,NE,51,5.0,9.0,65,0.00,OVC,,0.00,WeatherDisplay:10.37,2013-02-25 02:45:00,
2013-02-24 20:50:00,35.2,25.0,29.92,NE,47,3.0,7.0,66,0.00,OVC,,0.00,WeatherDisplay:10.37,2013-02-25 02:50:00,
2013-02-24 21:00:00,35.4,24.8,29.93,NE,46,5.0,7.0,65,0.00,OVC,,0.00,WeatherDisplay:10.37,2013-02-25 03:00:00,
2013-02-24 21:05:00,35.6,24.6,29.93,NE,44,3.0,8.0,64,0.00,OVC,,0.00,WeatherDisplay:10.37,2013-02-25 03:05:00,
2013-02-24 21:10:00,35.6,24.6,29.93,NE,41,3.0,5.0,64,0.00,OVC,,0.00,WeatherDisplay:10.37,2013-02-25 03:10:00,
2013-02-24 21:15:00,35.6,24.6,29.94,NE,34,2.0,6.0,64,0.00,OVC,,0.00,WeatherDisplay:10.37,2013-02-25 03:15:00,
2013-02-24 21:20:00,35.6,24.6,29.94,NNE,25,3.0,4.0,64,0.00,OVC,,0.00,WeatherDisplay:10.37,2013-02-25 03:20:00,
2013-02-24 21:30:00,35.4,24.8,29.94,NE,35,6.0,10.0,65,0.00,OVC,,0.00,WeatherDisplay:10.37,2013-02-25 03:30:00,
2013-02-24 21:40:00,35.4,24.8,29.95,NE,43,6.0,10.0,65,0.00,OVC,,0.00,WeatherDisplay:10.37,2013-02-25 03:40:00,
2013-02-24 21:45:00,35.3,24.7,29.95,NE,46,7.0,10.0,65,0.00,OVC,,0.00,WeatherDisplay:10.37,2013-02-25 03:45:00,
2013-02-24 21:50:00,35.4,24.8,29.95,NE,53,8.0,12.0,65,0.00,OVC,,0.00,WeatherDisplay:10.37,2013-02-25 03:50:00,
2013-02-24 22:00:00,35.1,24.5,29.95,NE,51,8.0,13.0,65,0.00,OVC,,0.00,WeatherDisplay:10.37,2013-02-25 04:00:00,
2013-02-24 22:10:00,35.0,24.8,29.95,NE,51,8.0,12.0,66,0.00,OVC,,0.00,WeatherDisplay:10.37,2013-02-25 04:10:00,
2013-02-24 22:15:00,35.0,24.8,29.95,NE,55,9.0,13.0,66,0.00,OVC,,0.00,WeatherDisplay:10.37,2013-02-25 04:15:00,
2013-02-24 22:20:00,34.9,24.7,29.94,NE,54,9.0,12.0,66,0.00,OVC,,0.00,WeatherDisplay:10.37,2013-02-25 04:20:00,
2013-02-24 22:25:00,34.9,24.3,29.94,ENE,59,10.0,13.0,65,0.00,OVC,,0.00,WeatherDisplay:10.37,2013-02-25 04:25:00,
2013-02-24 22:30:00,34.8,24.6,29.94,ENE,60,8.0,13.0,66,0.00,OVC,,0.00,WeatherDisplay:10.37,2013-02-25 04:30:00,
2013-02-24 22:40:00,34.7,24.5,29.94,NE,55,8.0,13.0,66,0.00,OVC,,0.00,WeatherDisplay:10.37,2013-02-25 04:40:00,
2013-02-24 22:45:00,34.5,24.4,29.93,ENE,58,9.0,13.0,66,0.00,OVC,,0.00,WeatherDisplay:10.37,2013-02-25 04:45:00,
2013-02-24 22:50:00,34.5,24.3,29.93,NE,56,9.0,13.0,66,0.00,OVC,,0.00,WeatherDisplay:10.37,2013-02-25 04:50:00,
2013-02-24 22:55:00,34.4,24.5,29.93,NE,52,8.0,12.0,67,0.00,OVC,,0.00,WeatherDisplay:10.37,2013-02-25 04:55:00,
2013-02-24 23:00:00,34.2,24.7,29.93,NE,48,9.0,12.0,68,0.00,OVC,,0.00,WeatherDisplay:10.37,2013-02-25 05:00:00,
2013-02-24 23:05:00,34.0,24.5,29.92,NE,47,9.0,13.0,68,0.00,OVC,,0.00,WeatherDisplay:10.37,2013-02-25 05:05:00,
2013-02-24 23:10:00,33.9,24.4,29.92,NE,50,9.0,14.0,68,0.00,OVC,,0.00,WeatherDisplay:10.37,2013-02-25 05:10:00,
2013-02-24 23:15:00,33.9,24.5,29.92,NE,55,9.0,12.0,68,0.00,OVC,,0.00,WeatherDisplay:10.37,2013-02-25 05:15:00,
2013-02-24 23:20:00,33.9,24.5,29.92,ENE,57,9.0,12.0,68,0.00,OVC,,0.00,WeatherDisplay:10.37,2013-02-25 05:20:00,
2013-02-24 23:25:00,34.0,24.5,29.92,ENE,59,8.0,12.0,68,0.00,OVC,,0.00,WeatherDisplay:10.37,2013-02-25 05:25:00,
2013-02-24 23:30:00,34.0,24.5,29.92,ENE,58,8.0,12.0,68,0.00,OVC,,0.00,WeatherDisplay:10.37,2013-02-25 05:30:00,
2013-02-24 23:40:00,33.9,24.4,29.92,ENE,58,7.0,12.0,68,0.00,OVC,,0.00,WeatherDisplay:10.37,2013-02-25 05:40:00,
2013-02-24 23:45:00,33.9,24.4,29.92,ENE,64,7.0,12.0,68,0.00,OVC,,0.00,WeatherDisplay:10.37,2013-02-25 05:45:00,
2013-02-24 23:50:00,33.9,24.5,29.92,ENE,69,7.0,12.0,68,0.00,OVC,,0.00,WeatherDisplay:10.37,2013-02-25 05:50:00,
2013-02-24 23:55:00,34.0,24.2,29.92,ENE,67,8.0,13.0,67,0.00,OVC,,0.00,WeatherDisplay:10.37,2013-02-25 05:55:00,